Dati Storici

Data ora Umidita' aria (%) Temperatura aria (°C) Rad globale (W/m²) Gonioanemometro (°) Tacoanemometro (m/s) Pioggia (mm)
16-06-2020 04:10 97.7 % 17.957 246.521 -0.009 0 0
16-06-2020 04:00 97.7 % 17.922 219.693 -0.01 0 0
16-06-2020 03:50 97.7 % 17.896 148.207 0.012 0 0
16-06-2020 03:40 97.7 % 17.852 229.632 -0.01 0 0
16-06-2020 03:30 97.7 % 17.949 105.751 -0.01 0 0
16-06-2020 03:20 97.7 % 17.99 223.762 -0.008 0 0
16-06-2020 03:10 97.7 % 18.128 209.623 -0.009 0 0
16-06-2020 03:00 97.7 % 18.067 289.834 -0.009 0 0
16-06-2020 02:50 97.7 % 18.106 75.758 -0.007 0 0
16-06-2020 02:40 97.7 % 18.113 214.986 -0.007 0 0
16-06-2020 02:30 97.7 % 18.091 290.705 -0.007 0 0
16-06-2020 02:20 97.7 % 18.113 230.617 -0.007 0 0
16-06-2020 02:10 97.7 % 18.111 315.369 -0.01 0 0
16-06-2020 02:00 97.7 % 18.15 295.014 -0.009 0 0
16-06-2020 01:50 97.7 % 18.154 279.843 -0.011 0 0
16-06-2020 01:40 97.7 % 18.151 303.514 -0.01 0 0
16-06-2020 01:30 97.7 % 18.187 174.398 -0.008 0 0
16-06-2020 01:20 97.7 % 18.199 244.154 0.027 0 0
16-06-2020 01:10 97.7 % 18.171 293.092 0.995 0 0
16-06-2020 01:00 97.7 % 18.164 150.781 0.406 0 0

I dati sono presentati in modo automatico a scopo informativo. In seguito a verifica i dati possono subire modifiche o essere invalidati e non riportati negli archivi definitivi.